Time,TemperatureF,DewpointF,PressureIn,WindDirection,WindDirectionDegrees,WindSpeedMPH,WindSpeedGustMPH,Humidity,HourlyPrecipIn,Conditions,Clouds,dailyrainin,SolarRadiationWatts/m^2,SoftwareType,DateUTC
2013-03-27 00:00:00,46.8,37.5,30.28,NNW,343,0.0,0.0,70,0.00,CLR,,0.00,0.0,WeatherDisplay:10.37,2013-03-27 04:00:00,
2013-03-27 00:05:00,46.5,37.6,30.28,NNW,343,0.3,1.0,71,0.00,,,0.00,0.0,WeatherDisplay:10.37,2013-03-27 04:05:00,
2013-03-27 00:10:00,46.7,37.8,30.27,NNW,343,1.1,2.3,71,0.00,,,0.00,0.0,WeatherDisplay:10.37,2013-03-27 04:10:00,
2013-03-27 00:15:00,47.0,37.7,30.28,NNW,343,0.0,1.2,70,0.00,,,0.00,0.0,WeatherDisplay:10.37,2013-03-27 04:15:00,
2013-03-27 00:20:00,46.9,37.6,30.27,NNW,343,0.0,0.0,70,0.00,,,0.00,0.0,WeatherDisplay:10.37,2013-03-27 04:20:00,
2013-03-27 00:25:00,46.7,37.4,30.27,NNW,343,0.5,3.5,70,0.00,,,0.00,0.0,WeatherDisplay:10.37,2013-03-27 04:25:00,
2013-03-27 00:30:00,46.7,37.8,30.27,NNW,343,0.0,0.0,71,0.00,,,0.00,0.0,WeatherDisplay:10.37,2013-03-27 04:30:00,
2013-03-27 00:35:00,46.3,37.8,30.27,NNW,343,0.0,0.0,72,0.00,,,0.00,0.0,WeatherDisplay:10.37,2013-03-27 04:35:00,
2013-03-27 00:40:00,45.8,37.6,30.27,NNW,343,0.0,0.0,73,0.00,,,0.00,0.0,WeatherDisplay:10.37,2013-03-27 04:40:00,
2013-03-27 00:45:00,45.8,37.6,30.27,NNW,343,0.0,0.0,73,0.00,,,0.00,0.0,WeatherDisplay:10.37,2013-03-27 04:45:00,
2013-03-27 00:50:00,45.8,37.6,30.27,NNW,343,0.0,0.0,73,0.00,,,0.00,0.0,WeatherDisplay:10.37,2013-03-27 04:50:00,
2013-03-27 00:55:00,45.6,37.8,30.27,NNW,343,0.0,0.0,74,0.00,,,0.00,0.0,WeatherDisplay:10.37,2013-03-27 04:55:00,
2013-03-27 01:00:00,45.4,37.6,30.27,NNW,343,0.0,0.0,74,0.00,,,0.00,0.0,WeatherDisplay:10.37,2013-03-27 05:00:00,
2013-03-27 01:05:00,45.0,37.6,30.27,NNW,343,0.0,0.0,75,0.00,,,0.00,0.0,WeatherDisplay:10.37,2013-03-27 05:05:00,
2013-03-27 01:10:00,44.8,37.7,30.27,NNW,343,0.0,0.0,76,0.00,,,0.00,0.0,WeatherDisplay:10.37,2013-03-27 05:10:00,
2013-03-27 01:15:00,44.6,37.8,30.27,NNW,343,0.0,0.0,77,0.00,,,0.00,0.0,WeatherDisplay:10.37,2013-03-27 05:15:00,
2013-03-27 01:20:00,44.4,37.6,30.27,NNW,343,0.0,0.0,77,0.00,,,0.00,0.0,WeatherDisplay:10.37,2013-03-27 05:20:00,
2013-03-27 01:25:00,44.1,38.0,30.27,NNW,343,0.0,0.0,79,0.00,,,0.00,0.0,WeatherDisplay:10.37,2013-03-27 05:25:00,
2013-03-27 01:30:00,44.0,37.9,30.27,NNW,343,0.0,0.0,79,0.00,,,0.00,0.0,WeatherDisplay:10.37,2013-03-27 05:30:00,
2013-03-27 01:35:00,43.6,37.8,30.27,NNW,343,0.0,0.0,80,0.00,,,0.00,0.0,WeatherDisplay:10.37,2013-03-27 05:35:00,
2013-03-27 01:40:00,43.4,38.0,30.27,NNW,343,0.0,0.0,81,0.00,,,0.00,0.0,WeatherDisplay:10.37,2013-03-27 05:40:00,
2013-03-27 01:45:00,43.3,37.5,30.27,NNW,343,0.0,0.0,80,0.00,,,0.00,0.0,WeatherDisplay:10.37,2013-03-27 05:45:00,
2013-03-27 01:50:00,43.2,38.1,30.27,NNW,343,0.0,0.0,82,0.00,,,0.00,0.0,WeatherDisplay:10.37,2013-03-27 05:50:00,
2013-03-27 01:55:00,43.1,38.0,30.26,NNW,343,0.0,0.0,82,0.00,,,0.00,0.0,WeatherDisplay:10.37,2013-03-27 05:55:00,
2013-03-27 02:00:00,43.0,37.6,30.26,NNW,343,0.0,0.0,81,0.00,,,0.00,0.0,WeatherDisplay:10.37,2013-03-27 06:00:00,
2013-03-27 02:05:00,42.9,37.8,30.26,NNW,343,0.0,0.0,82,0.00,,,0.00,0.0,WeatherDisplay:10.37,2013-03-27 06:05:00,
2013-03-27 02:10:00,42.7,38.2,30.26,WSW,258,0.8,9.0,84,0.00,,,0.00,0.0,WeatherDisplay:10.37,2013-03-27 06:10:00,
2013-03-27 02:15:00,44.3,38.5,30.27,NE,44,2.9,3.5,80,0.00,,,0.00,0.0,WeatherDisplay:10.37,2013-03-27 06:15:00,
2013-03-27 02:20:00,45.7,38.2,30.26,North,5,1.3,5.8,75,0.00,,,0.00,0.0,WeatherDisplay:10.37,2013-03-27 06:20:00,
2013-03-27 02:25:00,46.3,37.8,30.26,NNE,17,0.4,2.3,72,0.00,,,0.00,0.0,WeatherDisplay:10.37,2013-03-27 06:25:00,
2013-03-27 02:30:00,46.5,37.6,30.26,NNE,19,0.7,1.2,71,0.00,,,0.00,0.0,WeatherDisplay:10.37,2013-03-27 06:30:00,
2013-03-27 02:35:00,46.5,37.2,30.26,NNE,19,0.1,1.2,70,0.00,,,0.00,0.0,WeatherDisplay:10.37,2013-03-27 06:35:00,
2013-03-27 02:40:00,46.4,36.4,30.26,NNE,24,0.9,3.5,68,0.00,,,0.00,0.0,WeatherDisplay:10.37,2013-03-27 06:40:00,
2013-03-27 02:45:00,46.7,35.9,30.26,NNE,17,2.0,3.5,66,0.00,,,0.00,0.0,WeatherDisplay:10.37,2013-03-27 06:45:00,
2013-03-27 02:50:00,46.9,35.7,30.26,North,9,0.6,1.2,65,0.00,,,0.00,0.0,WeatherDisplay:10.37,2013-03-27 06:50:00,
2013-03-27 02:55:00,46.9,35.4,30.26,NNE,17,0.5,2.3,64,0.00,,,0.00,0.0,WeatherDisplay:10.37,2013-03-27 06:55:00,
2013-03-27 03:00:00,47.0,35.0,30.26,NNE,15,1.3,2.3,63,0.00,,,0.00,0.0,WeatherDisplay:10.37,2013-03-27 07:00:00,
2013-03-27 03:05:00,47.1,34.7,30.25,NNW,339,1.5,3.5,62,0.00,,,0.00,0.0,WeatherDisplay:10.37,2013-03-27 07:05:00,
2013-03-27 03:10:00,47.3,34.5,30.26,North,351,3.0,3.5,61,0.00,,,0.00,0.0,WeatherDisplay:10.37,2013-03-27 07:10:00,
2013-03-27 03:15:00,47.5,34.7,30.25,ENE,67,2.8,4.6,61,0.00,,,0.00,0.0,WeatherDisplay:10.37,2013-03-27 07:15:00,
2013-03-27 03:20:00,47.6,34.4,30.25,NNE,12,2.3,4.6,60,0.00,,,0.00,0.0,WeatherDisplay:10.37,2013-03-27 07:20:00,
2013-03-27 03:26:00,47.6,34.8,30.25,NNE,14,1.5,1.5,61,0.00,,,0.00,0.0,WeatherDisplay:10.37,2013-03-27 07:26:00,
2013-03-27 03:31:00,47.4,34.6,30.25,NE,53,0.9,2.3,61,0.00,,,0.00,0.0,WeatherDisplay:10.37,2013-03-27 07:31:00,
2013-03-27 03:36:00,47.0,34.6,30.25,North,11,0.4,2.3,62,0.00,,,0.00,0.0,WeatherDisplay:10.37,2013-03-27 07:36:00,
2013-03-27 03:41:00,47.0,34.6,30.25,North,9,0.9,2.3,62,0.00,,,0.00,0.0,WeatherDisplay:10.37,2013-03-27 07:41:00,
2013-03-27 03:46:00,47.0,34.6,30.25,NNE,32,0.1,3.5,62,0.00,,,0.00,0.0,WeatherDisplay:10.37,2013-03-27 07:46:00,
2013-03-27 03:51:00,46.8,34.5,30.25,NNE,30,0.7,1.2,62,0.00,,,0.00,0.0,WeatherDisplay:10.37,2013-03-27 07:51:00,
2013-03-27 03:56:00,46.9,34.6,30.25,NE,53,2.1,3.5,62,0.00,,,0.00,0.0,WeatherDisplay:10.37,2013-03-27 07:56:00,
2013-03-27 04:01:00,47.0,33.8,30.25,NNE,26,2.9,4.0,60,0.00,,,0.00,0.0,WeatherDisplay:10.37,2013-03-27 08:01:00,
2013-03-27 04:06:00,47.2,34.0,30.25,NNE,12,0.2,2.3,60,0.00,,,0.00,0.0,WeatherDisplay:10.37,2013-03-27 08:06:00,
2013-03-27 04:12:00,47.2,34.0,30.25,North,11,0.7,2.0,60,0.00,,,0.00,0.0,WeatherDisplay:10.37,2013-03-27 08:12:00,
2013-03-27 04:17:00,47.2,34.0,30.25,North,360,1.6,3.5,60,0.00,,,0.00,0.0,WeatherDisplay:10.37,2013-03-27 08:17:00,
2013-03-27 04:22:00,47.1,33.9,30.25,NNE,13,0.6,2.3,60,0.00,,,0.00,0.0,WeatherDisplay:10.37,2013-03-27 08:22:00,
2013-03-27 04:27:00,47.0,34.2,30.26,NE,37,0.7,3.5,61,0.00,,,0.00,0.0,WeatherDisplay:10.37,2013-03-27 08:27:00,
2013-03-27 04:32:00,47.0,33.8,30.26,NE,34,0.5,1.2,60,0.00,,,0.00,0.0,WeatherDisplay:10.37,2013-03-27 08:32:00,
2013-03-27 04:37:00,46.9,33.7,30.26,NNE,19,1.2,3.5,60,0.00,,,0.00,0.0,WeatherDisplay:10.37,2013-03-27 08:37:00,
2013-03-27 04:42:00,46.8,34.0,30.25,NNW,347,1.2,3.5,61,0.00,,,0.00,0.0,WeatherDisplay:10.37,2013-03-27 08:42:00,
2013-03-27 04:47:00,46.6,33.9,30.25,North,9,0.1,1.2,61,0.00,,,0.00,0.0,WeatherDisplay:10.37,2013-03-27 08:47:00,
2013-03-27 04:52:00,46.5,34.2,30.25,NNE,17,1.6,3.5,62,0.00,,,0.00,0.0,WeatherDisplay:10.37,2013-03-27 08:52:00,
2013-03-27 04:57:00,46.6,34.3,30.25,NNW,340,1.5,3.5,62,0.00,,,0.00,0.0,WeatherDisplay:10.37,2013-03-27 08:57:00,
2013-03-27 05:02:00,46.6,33.9,30.25,NNE,23,1.7,3.5,61,0.00,,,0.00,0.0,WeatherDisplay:10.37,2013-03-27 09:02:00,
2013-03-27 05:07:00,46.5,33.8,30.26,NNE,30,1.3,3.5,61,0.00,,,0.00,0.0,WeatherDisplay:10.37,2013-03-27 09:07:00,
2013-03-27 05:12:00,46.5,33.8,30.26,North,9,2.5,3.5,61,0.00,,,0.00,0.0,WeatherDisplay:10.37,2013-03-27 09:12:00,
2013-03-27 05:17:00,46.6,33.9,30.26,NNE,20,0.5,3.0,61,0.00,,,0.00,0.0,WeatherDisplay:10.37,2013-03-27 09:17:00,
2013-03-27 05:22:00,46.6,33.9,30.26,NNE,27,1.5,3.5,61,0.00,,,0.00,0.0,WeatherDisplay:10.37,2013-03-27 09:22:00,
2013-03-27 05:27:00,46.6,33.9,30.26,NE,50,0.4,1.2,61,0.00,,,0.00,0.0,WeatherDisplay:10.37,2013-03-27 09:27:00,
2013-03-27 05:32:00,46.3,34.0,30.26,North,9,0.4,5.0,62,0.00,,,0.00,0.0,WeatherDisplay:10.37,2013-03-27 09:32:00,
2013-03-27 05:37:00,46.3,34.0,30.26,North,10,1.4,3.5,62,0.00,,,0.00,0.0,WeatherDisplay:10.37,2013-03-27 09:37:00,
2013-03-27 05:42:00,46.2,33.9,30.26,NNE,17,2.0,3.5,62,0.00,,,0.00,0.0,WeatherDisplay:10.37,2013-03-27 09:42:00,
2013-03-27 05:47:00,46.1,34.2,30.27,NNE,15,0.5,3.0,63,0.00,,,0.00,0.0,WeatherDisplay:10.37,2013-03-27 09:47:00,
2013-03-27 05:52:00,45.9,34.0,30.27,NNE,23,0.4,1.0,63,0.00,,,0.00,0.0,WeatherDisplay:10.37,2013-03-27 09:52:00,
2013-03-27 05:57:00,45.6,34.1,30.27,NNE,13,0.8,2.3,64,0.00,,,0.00,0.0,WeatherDisplay:10.37,2013-03-27 09:57:00,
2013-03-27 06:02:00,45.5,34.0,30.27,NNE,30,1.0,3.5,64,0.00,,,0.00,0.0,WeatherDisplay:10.37,2013-03-27 10:02:00,
2013-03-27 06:07:00,45.2,34.1,30.27,North,9,1.2,2.3,65,0.00,,,0.00,0.0,WeatherDisplay:10.37,2013-03-27 10:07:00,
2013-03-27 06:12:00,45.3,33.8,30.27,North,355,1.5,3.5,64,0.00,,,0.00,0.0,WeatherDisplay:10.37,2013-03-27 10:12:00,
2013-03-27 06:17:00,45.5,33.6,30.27,NNE,31,3.2,3.5,63,0.00,,,0.00,0.0,WeatherDisplay:10.37,2013-03-27 10:17:00,
2013-03-27 06:22:00,45.7,33.4,30.28,North,11,1.1,3.5,62,0.00,,,0.00,0.0,WeatherDisplay:10.37,2013-03-27 10:22:00,
2013-03-27 06:27:00,45.8,33.5,30.28,NNE,23,2.9,6.0,62,0.00,,,0.00,0.0,WeatherDisplay:10.37,2013-03-27 10:27:00,
2013-03-27 06:32:00,45.8,33.1,30.28,NNE,27,3.3,6.9,61,0.00,,,0.00,0.0,WeatherDisplay:10.37,2013-03-27 10:32:00,
2013-03-27 06:37:00,45.9,32.8,30.28,NNE,21,2.7,6.9,60,0.00,,,0.00,0.0,WeatherDisplay:10.37,2013-03-27 10:37:00,
2013-03-27 06:42:00,45.8,32.7,30.28,NE,49,1.5,5.8,60,0.00,,,0.00,0.0,WeatherDisplay:10.37,2013-03-27 10:42:00,
2013-03-27 06:47:00,45.7,33.0,30.28,NNE,16,2.7,5.8,61,0.00,,,0.00,0.0,WeatherDisplay:10.37,2013-03-27 10:47:00,
2013-03-27 06:52:00,45.7,33.0,30.29,NW,324,3.2,6.9,61,0.00,,,0.00,0.0,WeatherDisplay:10.37,2013-03-27 10:52:00,
2013-03-27 06:57:00,45.6,32.9,30.29,NE,36,3.8,9.2,61,0.00,,,0.00,0.0,WeatherDisplay:10.37,2013-03-27 10:57:00,
2013-03-27 07:02:00,45.6,33.3,30.29,NE,49,2.0,3.5,62,0.00,CLR,,0.00,0.0,WeatherDisplay:10.37,2013-03-27 11:02:00,
2013-03-27 07:07:00,45.4,33.1,30.29,NE,55,1.9,7.0,62,0.00,CLR,,0.00,0.0,WeatherDisplay:10.37,2013-03-27 11:07:00,
2013-03-27 07:12:00,45.3,33.4,30.29,NNE,28,3.5,5.8,63,0.00,CLR,,0.00,0.0,WeatherDisplay:10.37,2013-03-27 11:12:00,
2013-03-27 07:17:00,45.2,33.3,30.30,NNE,15,2.6,6.9,63,0.00,CLR,,0.00,0.0,WeatherDisplay:10.37,2013-03-27 11:17:00,
2013-03-27 07:22:00,45.1,33.2,30.30,NE,46,3.6,9.2,63,0.00,CLR,,0.00,0.0,WeatherDisplay:10.37,2013-03-27 11:22:00,
2013-03-27 07:27:00,45.0,33.5,30.30,NNE,29,3.3,3.5,64,0.00,CLR,,0.00,5.0,WeatherDisplay:10.37,2013-03-27 11:27:00,
2013-03-27 07:32:00,44.9,33.5,30.31,NNE,22,2.6,4.0,64,0.00,CLR,,0.00,9.0,WeatherDisplay:10.37,2013-03-27 11:32:00,
2013-03-27 07:37:00,44.9,33.5,30.31,NE,37,1.3,5.8,64,0.00,CLR,,0.00,12.0,WeatherDisplay:10.37,2013-03-27 11:37:00,
2013-03-27 07:42:00,44.7,33.6,30.31,NNE,20,3.1,3.5,65,0.00,CLR,,0.00,16.0,WeatherDisplay:10.37,2013-03-27 11:42:00,
2013-03-27 07:47:00,44.7,33.6,30.31,NNE,17,2.4,4.6,65,0.00,CLR,,0.00,21.0,WeatherDisplay:10.37,2013-03-27 11:47:00,
2013-03-27 07:52:00,44.7,33.6,30.32,North,355,4.0,8.1,65,0.00,CLR,,0.00,25.0,WeatherDisplay:10.37,2013-03-27 11:52:00,
2013-03-27 07:57:00,44.8,33.7,30.32,NNW,333,5.1,5.8,65,0.00,CLR,,0.00,26.0,WeatherDisplay:10.37,2013-03-27 11:57:00,
2013-03-27 08:02:00,44.9,33.8,30.32,ENE,58,2.1,4.6,65,0.00,CLR,,0.00,30.0,WeatherDisplay:10.37,2013-03-27 12:02:00,
2013-03-27 08:07:00,45.0,33.9,30.32,NE,36,3.1,8.1,65,0.00,CLR,,0.00,33.0,WeatherDisplay:10.37,2013-03-27 12:07:00,
2013-03-27 08:12:00,45.1,34.0,30.33,North,355,2.6,6.9,65,0.00,CLR,,0.00,35.0,WeatherDisplay:10.37,2013-03-27 12:12:00,
2013-03-27 08:17:00,45.2,34.1,30.33,North,360,3.9,4.6,65,0.00,CLR,,0.00,37.0,WeatherDisplay:10.37,2013-03-27 12:17:00,
2013-03-27 08:23:00,45.3,34.2,30.33,North,355,6.6,8.1,65,0.00,CLR,,0.00,65.0,WeatherDisplay:10.37,2013-03-27 12:23:00,
2013-03-27 08:28:00,45.4,33.9,30.33,North,9,3.7,6.9,64,0.00,CLR,,0.00,151.0,WeatherDisplay:10.37,2013-03-27 12:28:00,
2013-03-27 08:33:00,45.5,34.0,30.33,NNE,33,3.8,8.1,64,0.00,CLR,,0.00,188.0,WeatherDisplay:10.37,2013-03-27 12:33:00,
2013-03-27 08:38:00,46.0,34.1,30.33,NNE,31,2.5,5.8,63,0.00,CLR,,0.00,211.0,WeatherDisplay:10.37,2013-03-27 12:38:00,
2013-03-27 08:43:00,46.3,34.0,30.34,NE,38,5.0,7.0,62,0.00,CLR,,0.00,232.0,WeatherDisplay:10.37,2013-03-27 12:43:00,
2013-03-27 08:48:00,46.4,33.7,30.34,NNW,338,3.4,5.0,61,0.00,CLR,,0.00,251.0,WeatherDisplay:10.37,2013-03-27 12:48:00,
2013-03-27 08:53:00,46.6,34.3,30.34,North,5,2.9,4.6,62,0.00,CLR,,0.00,269.0,WeatherDisplay:10.37,2013-03-27 12:53:00,
2013-03-27 08:58:00,46.9,34.6,30.35,North,360,5.1,6.9,62,0.00,CLR,,0.00,290.0,WeatherDisplay:10.37,2013-03-27 12:58:00,
2013-03-27 09:03:00,47.1,34.3,30.35,NNE,32,3.1,4.6,61,0.00,OVC,,0.00,308.0,WeatherDisplay:10.37,2013-03-27 13:03:00,
2013-03-27 09:08:00,47.2,34.4,30.35,North,355,3.4,5.0,61,0.00,OVC,,0.00,327.0,WeatherDisplay:10.37,2013-03-27 13:08:00,
2013-03-27 09:13:00,47.2,34.0,30.35,NNE,30,4.9,8.1,60,0.00,OVC,,0.00,346.0,WeatherDisplay:10.37,2013-03-27 13:13:00,
2013-03-27 09:18:00,47.5,33.9,30.35,NNW,342,5.4,11.5,59,0.00,OVC,,0.00,366.0,WeatherDisplay:10.37,2013-03-27 13:18:00,
2013-03-27 09:23:00,47.5,33.9,30.36,North,5,4.9,9.0,59,0.00,OVC,,0.00,383.0,WeatherDisplay:10.37,2013-03-27 13:23:00,
2013-03-27 09:28:00,47.7,33.2,30.36,North,355,5.8,11.5,57,0.00,OVC,,0.00,410.0,WeatherDisplay:10.37,2013-03-27 13:28:00,
2013-03-27 09:33:00,48.1,33.1,30.35,NE,56,5.9,10.4,56,0.00,OVC,,0.00,427.0,WeatherDisplay:10.37,2013-03-27 13:33:00,
2013-03-27 09:38:00,48.3,33.3,30.36,North,355,5.8,8.1,56,0.00,OVC,,0.00,445.0,WeatherDisplay:10.37,2013-03-27 13:38:00,
2013-03-27 09:43:00,48.5,33.9,30.36,North,5,5.6,12.0,57,0.00,OVC,,0.00,462.0,WeatherDisplay:10.37,2013-03-27 13:43:00,
2013-03-27 09:48:00,48.5,33.5,30.36,North,355,5.4,9.2,56,0.00,OVC,,0.00,482.0,WeatherDisplay:10.37,2013-03-27 13:48:00,
2013-03-27 09:53:00,49.3,34.3,30.36,NNE,20,3.9,8.1,56,0.00,OVC,,0.00,497.0,WeatherDisplay:10.37,2013-03-27 13:53:00,
2013-03-27 09:58:00,49.8,34.7,30.36,North,355,6.1,11.5,56,0.00,OVC,,0.00,515.0,WeatherDisplay:10.37,2013-03-27 13:58:00,
2013-03-27 10:03:00,49.6,34.5,30.36,North,360,6.0,9.2,56,0.00,OVC,,0.00,531.0,WeatherDisplay:10.37,2013-03-27 14:03:00,
2013-03-27 10:08:00,49.7,34.6,30.36,North,360,3.8,6.9,56,0.00,OVC,,0.00,552.0,WeatherDisplay:10.37,2013-03-27 14:08:00,
2013-03-27 10:13:00,49.8,33.8,30.36,NNE,22,3.3,7.0,54,0.00,OVC,,0.00,573.0,WeatherDisplay:10.37,2013-03-27 14:13:00,
2013-03-27 10:18:00,50.2,33.7,30.36,North,355,3.6,5.8,53,0.00,OVC,,0.00,589.0,WeatherDisplay:10.37,2013-03-27 14:18:00,
2013-03-27 10:23:00,50.3,32.8,30.36,ENE,74,4.8,8.1,51,0.00,OVC,,0.00,603.0,WeatherDisplay:10.37,2013-03-27 14:23:00,
2013-03-27 10:28:00,50.3,32.4,30.36,NE,46,4.9,8.1,50,0.00,OVC,,0.00,622.0,WeatherDisplay:10.37,2013-03-27 14:28:00,
2013-03-27 10:33:00,50.7,32.7,30.36,NNW,328,3.6,8.0,50,0.00,OVC,,0.00,636.0,WeatherDisplay:10.37,2013-03-27 14:33:00,
2013-03-27 10:38:00,50.6,31.6,30.36,NNW,348,4.5,8.1,48,0.00,OVC,,0.00,652.0,WeatherDisplay:10.37,2013-03-27 14:38:00,
2013-03-27 10:43:00,51.2,32.7,30.36,NNE,17,5.3,10.0,49,0.00,OVC,,0.00,670.0,WeatherDisplay:10.37,2013-03-27 14:43:00,
2013-03-27 10:48:00,51.0,32.0,30.36,NE,34,1.9,6.9,48,0.00,OVC,,0.00,687.0,WeatherDisplay:10.37,2013-03-27 14:48:00,
2013-03-27 10:53:00,51.6,32.0,30.36,NW,319,3.8,8.1,47,0.00,OVC,,0.00,701.0,WeatherDisplay:10.37,2013-03-27 14:53:00,
2013-03-27 10:58:00,51.6,32.5,30.36,NNE,13,3.2,5.8,48,0.00,OVC,,0.00,717.0,WeatherDisplay:10.37,2013-03-27 14:58:00,
2013-03-27 11:03:00,51.7,32.1,30.36,NE,43,3.2,8.0,47,0.00,OVC,,0.00,731.0,WeatherDisplay:10.37,2013-03-27 15:03:00,
2013-03-27 11:08:00,52.2,32.0,30.36,NW,308,4.0,6.0,46,0.00,OVC,,0.00,745.0,WeatherDisplay:10.37,2013-03-27 15:08:00,
2013-03-27 11:13:00,52.2,32.0,30.36,NNE,12,4.1,8.1,46,0.00,OVC,,0.00,761.0,WeatherDisplay:10.37,2013-03-27 15:13:00,
2013-03-27 11:18:00,52.6,31.8,30.36,North,360,1.0,3.5,45,0.00,OVC,,0.00,775.0,WeatherDisplay:10.37,2013-03-27 15:18:00,
2013-03-27 11:23:00,53.4,32.6,30.35,NE,34,2.2,3.0,45,0.00,OVC,,0.00,788.0,WeatherDisplay:10.37,2013-03-27 15:23:00,
2013-03-27 11:28:00,53.0,32.2,30.36,North,5,6.6,9.2,45,0.00,OVC,,0.00,798.0,WeatherDisplay:10.37,2013-03-27 15:28:00,
2013-03-27 11:33:00,52.0,31.8,30.36,NW,319,5.8,10.0,46,0.00,OVC,,0.00,812.0,WeatherDisplay:10.37,2013-03-27 15:33:00,
2013-03-27 11:38:00,52.3,32.1,30.36,North,5,2.9,5.0,46,0.00,OVC,,0.00,821.0,WeatherDisplay:10.37,2013-03-27 15:38:00,
2013-03-27 11:43:00,53.3,33.0,30.36,NNW,345,0.6,4.6,46,0.00,OVC,,0.00,831.0,WeatherDisplay:10.37,2013-03-27 15:43:00,
2013-03-27 11:48:00,54.2,33.3,30.35,ENE,66,2.1,3.0,45,0.00,OVC,,0.00,844.0,WeatherDisplay:10.37,2013-03-27 15:48:00,
2013-03-27 11:53:00,53.9,32.5,30.35,ENE,61,2.7,7.0,44,0.00,OVC,,0.00,858.0,WeatherDisplay:10.37,2013-03-27 15:53:00,
2013-03-27 11:58:00,54.2,32.7,30.35,NNW,347,4.3,8.1,44,0.00,OVC,,0.00,865.0,WeatherDisplay:10.37,2013-03-27 15:58:00,
2013-03-27 12:03:00,54.1,32.6,30.36,NNE,28,3.2,6.9,44,0.00,OVC,,0.00,874.0,WeatherDisplay:10.37,2013-03-27 16:03:00,
2013-03-27 12:08:00,54.1,33.8,30.36,North,9,3.3,6.9,46,0.00,OVC,,0.00,886.0,WeatherDisplay:10.37,2013-03-27 16:08:00,
2013-03-27 12:13:00,54.6,33.7,30.35,NE,51,2.5,5.8,45,0.00,OVC,,0.00,889.0,WeatherDisplay:10.37,2013-03-27 16:13:00,
2013-03-27 12:18:00,54.7,34.3,30.35,NE,51,2.4,8.0,46,0.00,OVC,,0.00,898.0,WeatherDisplay:10.37,2013-03-27 16:18:00,
2013-03-27 12:23:00,55.6,34.6,30.35,NNW,345,2.2,3.5,45,0.00,OVC,,0.00,909.0,WeatherDisplay:10.37,2013-03-27 16:23:00,
2013-03-27 12:28:00,56.0,35.5,30.35,NW,318,1.1,3.5,46,0.00,OVC,,0.00,911.0,WeatherDisplay:10.37,2013-03-27 16:28:00,
2013-03-27 12:33:00,55.8,35.3,30.35,North,9,2.6,6.9,46,0.00,OVC,,0.00,918.0,WeatherDisplay:10.37,2013-03-27 16:33:00,
2013-03-27 12:38:00,55.6,35.7,30.35,NNE,24,2.3,6.0,47,0.00,OVC,,0.00,928.0,WeatherDisplay:10.37,2013-03-27 16:38:00,
2013-03-27 12:43:00,56.5,37.0,30.35,West,265,3.6,3.6,48,0.00,OVC,,0.00,930.0,WeatherDisplay:10.37,2013-03-27 16:43:00,
2013-03-27 12:48:00,56.5,36.5,30.35,WNW,302,3.3,10.4,47,0.00,OVC,,0.00,939.0,WeatherDisplay:10.37,2013-03-27 16:48:00,
2013-03-27 12:53:00,56.2,36.2,30.35,NNE,28,4.2,6.9,47,0.00,OVC,,0.00,944.0,WeatherDisplay:10.37,2013-03-27 16:53:00,
2013-03-27 12:58:00,55.9,37.0,30.35,SW,221,1.7,5.8,49,0.00,OVC,,0.00,946.0,WeatherDisplay:10.37,2013-03-27 16:58:00,
2013-03-27 13:03:00,57.2,37.1,30.34,NNW,333,4.9,8.0,47,0.00,OVC,,0.00,951.0,WeatherDisplay:10.37,2013-03-27 17:03:00,
2013-03-27 13:08:00,57.0,37.0,30.35,NW,315,3.9,9.2,47,0.00,OVC,,0.00,954.0,WeatherDisplay:10.37,2013-03-27 17:08:00,
2013-03-27 13:13:00,56.1,36.1,30.34,NE,34,4.2,5.8,47,0.00,OVC,,0.00,956.0,WeatherDisplay:10.37,2013-03-27 17:13:00,
2013-03-27 13:18:00,56.8,37.3,30.34,NNW,345,5.5,10.4,48,0.00,OVC,,0.00,956.0,WeatherDisplay:10.37,2013-03-27 17:18:00,
2013-03-27 13:23:00,56.9,37.4,30.34,NNE,26,2.2,4.0,48,0.00,OVC,,0.00,963.0,WeatherDisplay:10.37,2013-03-27 17:23:00,
2013-03-27 13:28:00,57.0,37.0,30.34,NW,308,3.3,6.9,47,0.00,OVC,,0.00,963.0,WeatherDisplay:10.37,2013-03-27 17:28:00,
2013-03-27 13:33:00,57.0,36.4,30.33,NNW,339,5.3,10.4,46,0.00,OVC,,0.00,970.0,WeatherDisplay:10.37,2013-03-27 17:33:00,
2013-03-27 13:38:00,56.7,37.7,30.33,NW,324,1.3,8.1,49,0.00,OVC,,0.00,965.0,WeatherDisplay:10.37,2013-03-27 17:38:00,
2013-03-27 13:43:00,56.7,37.7,30.33,NNW,346,3.6,5.0,49,0.00,OVC,,0.00,962.0,WeatherDisplay:10.37,2013-03-27 17:43:00,
2013-03-27 13:48:00,56.7,37.2,30.33,NW,309,2.6,4.6,48,0.00,OVC,,0.00,962.0,WeatherDisplay:10.37,2013-03-27 17:48:00,
2013-03-27 13:53:00,57.2,37.7,30.33,NNE,29,5.5,7.0,48,0.00,OVC,,0.00,960.0,WeatherDisplay:10.37,2013-03-27 17:53:00,
2013-03-27 13:58:00,57.3,38.8,30.33,NNW,338,3.6,10.4,50,0.00,OVC,,0.00,962.0,WeatherDisplay:10.37,2013-03-27 17:58:00,
2013-03-27 14:03:00,57.5,37.9,30.33,NNW,337,5.4,9.2,48,0.00,OVC,,0.00,960.0,WeatherDisplay:10.37,2013-03-27 18:03:00,
2013-03-27 14:08:00,56.8,37.8,30.33,ENE,69,2.7,15.0,49,0.00,OVC,,0.00,956.0,WeatherDisplay:10.37,2013-03-27 18:08:00,
2013-03-27 14:13:00,56.8,37.8,30.32,NNE,25,5.6,10.4,49,0.00,OVC,,0.00,951.0,WeatherDisplay:10.37,2013-03-27 18:13:00,
2013-03-27 14:18:00,57.3,38.3,30.32,North,355,5.2,10.4,49,0.00,OVC,,0.00,947.0,WeatherDisplay:10.37,2013-03-27 18:18:00,
2013-03-27 14:23:00,57.2,38.7,30.32,NW,306,5.3,5.8,50,0.00,OVC,,0.00,944.0,WeatherDisplay:10.37,2013-03-27 18:23:00,
2013-03-27 14:28:00,57.2,37.7,30.32,NE,44,6.7,11.5,48,0.00,OVC,,0.00,939.0,WeatherDisplay:10.37,2013-03-27 18:28:00,
2013-03-27 14:33:00,56.8,38.3,30.31,SW,227,4.3,5.8,50,0.00,OVC,,0.00,932.0,WeatherDisplay:10.37,2013-03-27 18:33:00,
2013-03-27 14:38:00,57.3,38.8,30.31,West,273,1.3,4.6,50,0.00,OVC,,0.00,923.0,WeatherDisplay:10.37,2013-03-27 18:38:00,
2013-03-27 14:43:00,57.7,38.1,30.31,ENE,57,6.4,11.5,48,0.00,OVC,,0.00,921.0,WeatherDisplay:10.37,2013-03-27 18:43:00,
2013-03-27 14:48:00,57.9,39.4,30.31,SW,217,2.7,3.5,50,0.00,OVC,,0.00,909.0,WeatherDisplay:10.37,2013-03-27 18:48:00,
2013-03-27 14:53:00,57.7,38.7,30.31,NE,39,4.8,10.4,49,0.00,OVC,,0.00,904.0,WeatherDisplay:10.37,2013-03-27 18:53:00,
2013-03-27 14:58:00,57.5,38.5,30.30,NNW,333,3.1,8.1,49,0.00,OVC,,0.00,889.0,WeatherDisplay:10.37,2013-03-27 18:58:00,
2013-03-27 15:03:00,57.6,38.6,30.30,WNW,287,5.1,9.2,49,0.00,OVC,,0.00,888.0,WeatherDisplay:10.37,2013-03-27 19:03:00,
2013-03-27 15:09:00,58.1,39.0,30.30,SW,223,0.9,3.5,49,0.00,OVC,,0.00,874.0,WeatherDisplay:10.37,2013-03-27 19:09:00,
2013-03-27 15:14:00,58.7,39.0,30.29,NE,41,2.9,5.8,48,0.00,OVC,,0.00,870.0,WeatherDisplay:10.37,2013-03-27 19:14:00,
2013-03-27 15:19:00,58.4,37.7,30.29,NNE,19,5.7,10.4,46,0.00,OVC,,0.00,858.0,WeatherDisplay:10.37,2013-03-27 19:19:00,
2013-03-27 15:24:00,57.9,38.8,30.29,NNE,22,2.5,4.6,49,0.00,OVC,,0.00,844.0,WeatherDisplay:10.37,2013-03-27 19:24:00,
2013-03-27 15:29:00,58.2,39.1,30.28,North,5,3.8,9.0,49,0.00,OVC,,0.00,835.0,WeatherDisplay:10.37,2013-03-27 19:29:00,
2013-03-27 15:34:00,58.8,38.6,30.28,WSW,242,2.4,5.0,47,0.00,OVC,,0.00,831.0,WeatherDisplay:10.37,2013-03-27 19:34:00,
2013-03-27 15:39:00,59.0,38.8,30.29,North,5,3.1,5.8,47,0.00,OVC,,0.00,810.0,WeatherDisplay:10.37,2013-03-27 19:39:00,
2013-03-27 15:44:00,58.1,38.5,30.28,NW,319,3.7,4.6,48,0.00,OVC,,0.00,802.0,WeatherDisplay:10.37,2013-03-27 19:44:00,
2013-03-27 15:49:00,58.9,39.2,30.28,NNW,346,2.7,3.5,48,0.00,OVC,,0.00,786.0,WeatherDisplay:10.37,2013-03-27 19:49:00,
2013-03-27 15:54:00,58.7,39.0,30.28,West,264,1.2,5.8,48,0.00,OVC,,0.00,777.0,WeatherDisplay:10.37,2013-03-27 19:54:00,
2013-03-27 15:59:00,58.6,39.0,30.28,NNE,27,3.6,10.4,48,0.00,OVC,,0.00,763.0,WeatherDisplay:10.37,2013-03-27 19:59:00,
2013-03-27 16:04:00,58.1,39.0,30.28,North,355,4.4,4.6,49,0.00,OVC,,0.00,745.0,WeatherDisplay:10.37,2013-03-27 20:04:00,
2013-03-27 16:09:00,57.3,38.3,30.28,North,5,4.9,10.4,49,0.00,OVC,,0.00,735.0,WeatherDisplay:10.37,2013-03-27 20:09:00,
2013-03-27 16:14:00,57.5,39.5,30.28,WSW,248,3.0,8.1,51,0.00,OVC,,0.00,717.0,WeatherDisplay:10.37,2013-03-27 20:14:00,
2013-03-27 16:19:00,57.8,39.3,30.28,North,11,4.8,8.1,50,0.00,OVC,,0.00,705.0,WeatherDisplay:10.37,2013-03-27 20:19:00,
2013-03-27 16:24:00,57.7,40.2,30.28,West,279,4.1,12.0,52,0.00,OVC,,0.00,677.0,WeatherDisplay:10.37,2013-03-27 20:24:00,
2013-03-27 16:29:00,57.8,39.8,30.28,NNW,344,5.5,9.0,51,0.00,OVC,,0.00,680.0,WeatherDisplay:10.37,2013-03-27 20:29:00,
2013-03-27 16:34:00,57.4,39.4,30.27,NW,323,4.6,10.4,51,0.00,OVC,,0.00,659.0,WeatherDisplay:10.37,2013-03-27 20:34:00,
2013-03-27 16:39:00,57.2,39.7,30.28,North,5,4.9,8.0,52,0.00,OVC,,0.00,649.0,WeatherDisplay:10.37,2013-03-27 20:39:00,
2013-03-27 16:44:00,57.1,39.1,30.27,NW,325,3.3,13.8,51,0.00,OVC,,0.00,628.0,WeatherDisplay:10.37,2013-03-27 20:44:00,
2013-03-27 16:49:00,57.1,39.1,30.28,NNE,33,5.5,8.1,51,0.00,OVC,,0.00,608.0,WeatherDisplay:10.37,2013-03-27 20:49:00,
2013-03-27 16:54:00,56.8,40.3,30.27,North,350,4.2,8.0,54,0.00,OVC,,0.00,591.0,WeatherDisplay:10.37,2013-03-27 20:54:00,
2013-03-27 16:59:00,56.5,39.1,30.28,NNW,344,1.9,11.5,52,0.00,OVC,,0.00,571.0,WeatherDisplay:10.37,2013-03-27 20:59:00,
2013-03-27 17:04:00,56.6,39.2,30.28,North,5,4.8,13.8,52,0.00,OVC,,0.00,564.0,WeatherDisplay:10.37,2013-03-27 21:04:00,
2013-03-27 17:09:00,56.3,38.9,30.28,North,355,7.1,11.5,52,0.00,OVC,,0.00,543.0,WeatherDisplay:10.37,2013-03-27 21:09:00,
2013-03-27 17:14:00,55.8,39.4,30.28,NNW,331,4.8,8.1,54,0.00,OVC,,0.00,529.0,WeatherDisplay:10.37,2013-03-27 21:14:00,
2013-03-27 17:19:00,55.8,39.9,30.28,NW,311,4.9,8.1,55,0.00,OVC,,0.00,510.0,WeatherDisplay:10.37,2013-03-27 21:19:00,
2013-03-27 17:24:00,56.3,40.3,30.28,NNW,327,2.6,11.0,55,0.00,OVC,,0.00,489.0,WeatherDisplay:10.37,2013-03-27 21:24:00,
2013-03-27 17:29:00,56.0,39.1,30.27,NNW,343,6.6,10.4,53,0.00,OVC,,0.00,473.0,WeatherDisplay:10.37,2013-03-27 21:29:00,
2013-03-27 17:34:00,55.7,38.8,30.27,North,355,3.8,9.2,53,0.00,CLR,,0.00,454.0,WeatherDisplay:10.37,2013-03-27 21:34:00,
2013-03-27 17:39:00,55.7,38.8,30.27,WNW,302,8.0,11.5,53,0.00,CLR,,0.00,436.0,WeatherDisplay:10.37,2013-03-27 21:39:00,
2013-03-27 17:44:00,55.3,39.4,30.27,NNW,338,2.1,5.8,55,0.00,CLR,,0.00,418.0,WeatherDisplay:10.37,2013-03-27 21:44:00,
2013-03-27 17:49:00,55.8,40.3,30.27,NE,44,2.4,6.9,56,0.00,CLR,,0.00,397.0,WeatherDisplay:10.37,2013-03-27 21:49:00,
2013-03-27 17:54:00,55.7,40.7,30.27,North,5,2.0,5.8,57,0.00,CLR,,0.00,376.0,WeatherDisplay:10.37,2013-03-27 21:54:00,
2013-03-27 17:59:00,55.9,40.0,30.27,NW,311,3.3,5.8,55,0.00,CLR,,0.00,359.0,WeatherDisplay:10.37,2013-03-27 21:59:00,
2013-03-27 18:04:00,55.5,40.0,30.28,NNE,12,3.6,5.8,56,0.00,CLR,,0.00,336.0,WeatherDisplay:10.37,2013-03-27 22:04:00,
2013-03-27 18:09:00,55.4,40.9,30.28,NNW,334,1.6,3.5,58,0.00,CLR,,0.00,318.0,WeatherDisplay:10.37,2013-03-27 22:09:00,
2013-03-27 18:14:00,55.6,41.5,30.28,West,262,2.2,5.8,59,0.00,CLR,,0.00,302.0,WeatherDisplay:10.37,2013-03-27 22:14:00,
2013-03-27 18:19:00,55.4,40.9,30.28,North,5,6.3,11.5,58,0.00,CLR,,0.00,283.0,WeatherDisplay:10.37,2013-03-27 22:19:00,
2013-03-27 18:24:00,55.0,40.5,30.27,NW,316,1.9,3.5,58,0.00,CLR,,0.00,262.0,WeatherDisplay:10.37,2013-03-27 22:24:00,
2013-03-27 18:29:00,55.1,40.6,30.27,NW,320,4.2,8.1,58,0.00,CLR,,0.00,239.0,WeatherDisplay:10.37,2013-03-27 22:29:00,
2013-03-27 18:34:00,54.9,40.4,30.27,West,266,1.3,4.6,58,0.00,CLR,,0.00,214.0,WeatherDisplay:10.37,2013-03-27 22:34:00,
2013-03-27 18:39:00,54.9,40.4,30.27,NNW,345,4.9,6.9,58,0.00,CLR,,0.00,193.0,WeatherDisplay:10.37,2013-03-27 22:39:00,
2013-03-27 18:44:00,54.9,40.8,30.27,West,278,3.3,8.1,59,0.00,FEW,,0.00,169.0,WeatherDisplay:10.37,2013-03-27 22:44:00,
2013-03-27 18:49:00,54.6,41.0,30.27,North,360,0.3,1.2,60,0.00,SCT,,0.00,146.0,WeatherDisplay:10.37,2013-03-27 22:49:00,
2013-03-27 18:54:00,54.5,40.9,30.27,NNW,344,3.5,4.6,60,0.00,BKN,,0.00,127.0,WeatherDisplay:10.37,2013-03-27 22:54:00,
2013-03-27 18:59:00,54.4,40.8,30.27,NNE,32,4.3,8.1,60,0.00,BKN,,0.00,104.0,WeatherDisplay:10.37,2013-03-27 22:59:00,
2013-03-27 19:04:00,54.0,40.8,30.27,WNW,286,2.1,4.6,61,0.00,BKN,,0.00,53.0,WeatherDisplay:10.37,2013-03-27 23:04:00,
2013-03-27 19:09:00,53.7,40.6,30.27,NNE,19,0.6,2.3,61,0.00,BKN,,0.00,32.0,WeatherDisplay:10.37,2013-03-27 23:09:00,
2013-03-27 19:14:00,53.4,40.3,30.27,NW,307,2.9,4.6,61,0.00,BKN,,0.00,26.0,WeatherDisplay:10.37,2013-03-27 23:14:00,
2013-03-27 19:19:00,53.1,40.4,30.27,NNW,334,4.0,8.1,62,0.00,BKN,,0.00,25.0,WeatherDisplay:10.37,2013-03-27 23:19:00,
2013-03-27 19:24:00,52.8,40.5,30.27,WNW,300,2.4,5.8,63,0.00,BKN,,0.00,21.0,WeatherDisplay:10.37,2013-03-27 23:24:00,
2013-03-27 19:29:00,52.6,40.8,30.26,North,5,2.2,4.6,64,0.00,,,0.00,18.0,WeatherDisplay:10.37,2013-03-27 23:29:00,
2013-03-27 19:34:00,52.4,39.8,30.26,NW,313,3.8,6.9,62,0.00,,,0.00,14.0,WeatherDisplay:10.37,2013-03-27 23:34:00,
2013-03-27 19:39:00,52.2,39.6,30.27,North,5,4.2,5.8,62,0.00,,,0.00,11.0,WeatherDisplay:10.37,2013-03-27 23:39:00,
2013-03-27 19:44:00,51.9,39.7,30.27,NNW,339,4.4,6.9,63,0.00,,,0.00,5.0,WeatherDisplay:10.37,2013-03-27 23:44:00,
2013-03-27 19:49:00,51.7,39.9,30.27,North,360,4.3,5.8,64,0.00,,,0.00,0.0,WeatherDisplay:10.37,2013-03-27 23:49:00,
2013-03-27 19:54:00,51.5,39.7,30.27,NNE,29,2.1,4.0,64,0.00,,,0.00,0.0,WeatherDisplay:10.37,2013-03-27 23:54:00,
2013-03-27 19:59:00,51.3,39.9,30.27,NNW,345,3.4,6.9,65,0.00,,,0.00,0.0,WeatherDisplay:10.37,2013-03-27 23:59:00,
2013-03-27 20:04:00,51.1,40.1,30.27,NNW,348,1.0,2.3,66,0.00,,,0.00,0.0,WeatherDisplay:10.37,2013-03-28 00:04:00,
2013-03-27 20:09:00,50.9,40.3,30.27,North,11,0.6,3.5,67,0.00,,,0.00,0.0,WeatherDisplay:10.37,2013-03-28 00:09:00,
2013-03-27 20:14:00,50.7,40.1,30.27,NNW,335,2.2,5.0,67,0.00,,,0.00,0.0,WeatherDisplay:10.37,2013-03-28 00:14:00,
2013-03-27 20:19:00,50.6,40.0,30.27,NNW,343,2.2,5.0,67,0.00,,,0.00,0.0,WeatherDisplay:10.37,2013-03-28 00:19:00,
2013-03-27 20:24:00,50.5,39.9,30.28,NW,317,1.1,3.5,67,0.00,,,0.00,0.0,WeatherDisplay:10.37,2013-03-28 00:24:00,
2013-03-27 20:29:00,50.4,40.2,30.28,North,5,1.3,3.5,68,0.00,,,0.00,0.0,WeatherDisplay:10.37,2013-03-28 00:29:00,
2013-03-27 20:34:00,50.3,40.1,30.28,North,355,1.2,3.5,68,0.00,,,0.00,0.0,WeatherDisplay:10.37,2013-03-28 00:34:00,
2013-03-27 20:39:00,50.2,40.0,30.28,NNW,327,0.9,3.0,68,0.00,,,0.00,0.0,WeatherDisplay:10.37,2013-03-28 00:39:00,
2013-03-27 20:44:00,50.0,40.2,30.29,NW,319,0.2,1.2,69,0.00,,,0.00,0.0,WeatherDisplay:10.37,2013-03-28 00:44:00,
2013-03-27 20:49:00,49.8,40.0,30.29,NNE,19,0.7,3.5,69,0.00,,,0.00,0.0,WeatherDisplay:10.37,2013-03-28 00:49:00,
2013-03-27 20:54:00,49.6,40.2,30.28,North,360,0.1,1.2,70,0.00,,,0.00,0.0,WeatherDisplay:10.37,2013-03-28 00:54:00,
2013-03-27 20:59:00,49.4,40.0,30.28,North,360,0.0,0.0,70,0.00,,,0.00,0.0,WeatherDisplay:10.37,2013-03-28 00:59:00,
2013-03-27 21:04:00,49.2,40.2,30.28,North,360,0.0,0.0,71,0.00,,,0.00,0.0,WeatherDisplay:10.37,2013-03-28 01:04:00,
2013-03-27 21:09:00,49.0,40.0,30.28,North,360,0.0,0.0,71,0.00,,,0.00,0.0,WeatherDisplay:10.37,2013-03-28 01:09:00,
2013-03-27 21:14:00,48.8,40.2,30.28,North,9,1.2,2.3,72,0.00,,,0.00,0.0,WeatherDisplay:10.37,2013-03-28 01:14:00,
2013-03-27 21:19:00,48.6,40.0,30.29,NNW,332,0.0,1.0,72,0.00,,,0.00,0.0,WeatherDisplay:10.37,2013-03-28 01:19:00,
2013-03-27 21:24:00,48.5,40.2,30.29,NNW,333,0.0,0.0,73,0.00,,,0.00,0.0,WeatherDisplay:10.37,2013-03-28 01:24:00,
2013-03-27 21:29:00,48.3,40.0,30.29,NNW,333,0.0,1.2,73,0.00,,,0.00,0.0,WeatherDisplay:10.37,2013-03-28 01:29:00,
2013-03-27 21:34:00,48.1,39.9,30.29,NNW,333,0.0,0.0,73,0.00,,,0.00,0.0,WeatherDisplay:10.37,2013-03-28 01:34:00,
2013-03-27 21:39:00,47.8,39.9,30.29,NNW,333,0.0,0.0,74,0.00,,,0.00,0.0,WeatherDisplay:10.37,2013-03-28 01:39:00,
2013-03-27 21:44:00,47.6,40.1,30.29,NNW,333,0.0,0.0,75,0.00,,,0.00,0.0,WeatherDisplay:10.37,2013-03-28 01:44:00,
2013-03-27 21:49:00,47.2,40.0,30.29,NNW,333,0.0,0.0,76,0.00,,,0.00,0.0,WeatherDisplay:10.37,2013-03-28 01:49:00,
2013-03-27 21:54:00,46.9,40.1,30.29,NNW,333,0.0,0.0,77,0.00,,,0.00,0.0,WeatherDisplay:10.37,2013-03-28 01:54:00,
2013-03-27 21:59:00,46.7,40.2,30.30,NNW,333,0.0,0.0,78,0.00,,,0.00,0.0,WeatherDisplay:10.37,2013-03-28 01:59:00,
2013-03-27 22:04:00,46.3,39.8,30.30,NNW,333,0.0,0.0,78,0.00,,,0.00,0.0,WeatherDisplay:10.37,2013-03-28 02:04:00,
2013-03-27 22:09:00,45.9,39.8,30.30,NNW,333,0.0,0.0,79,0.00,,,0.00,0.0,WeatherDisplay:10.37,2013-03-28 02:09:00,
2013-03-27 22:14:00,45.6,39.8,30.30,NNW,333,0.0,0.0,80,0.00,,,0.00,0.0,WeatherDisplay:10.37,2013-03-28 02:14:00,
2013-03-27 22:19:00,45.4,39.9,30.30,NNW,333,0.0,0.0,81,0.00,,,0.00,0.0,WeatherDisplay:10.37,2013-03-28 02:19:00,
2013-03-27 22:24:00,45.2,40.0,30.30,NNW,333,0.0,0.0,82,0.00,,,0.00,0.0,WeatherDisplay:10.37,2013-03-28 02:24:00,
2013-03-27 22:29:00,45.0,39.8,30.30,NNW,333,0.0,0.0,82,0.00,,,0.00,0.0,WeatherDisplay:10.37,2013-03-28 02:29:00,
2013-03-27 22:34:00,44.7,39.9,30.30,NNW,333,0.0,0.0,83,0.00,,,0.00,0.0,WeatherDisplay:10.37,2013-03-28 02:34:00,
2013-03-27 22:39:00,44.4,39.9,30.30,NNW,333,0.0,0.0,84,0.00,,,0.00,0.0,WeatherDisplay:10.37,2013-03-28 02:39:00,
2013-03-27 22:44:00,44.3,39.8,30.30,NNW,333,0.0,0.0,84,0.00,,,0.00,0.0,WeatherDisplay:10.37,2013-03-28 02:44:00,
2013-03-27 22:49:00,44.0,39.8,30.30,NNW,333,0.0,0.0,85,0.00,,,0.00,0.0,WeatherDisplay:10.37,2013-03-28 02:49:00,
2013-03-27 22:54:00,43.8,39.9,30.30,NNW,333,0.0,0.0,86,0.00,,,0.00,0.0,WeatherDisplay:10.37,2013-03-28 02:54:00,
2013-03-27 22:59:00,43.6,39.7,30.31,NNW,333,0.0,0.0,86,0.00,,,0.00,0.0,WeatherDisplay:10.37,2013-03-28 02:59:00,
2013-03-27 23:04:00,43.6,40.0,30.30,NNW,333,0.0,0.0,87,0.00,,,0.00,0.0,WeatherDisplay:10.37,2013-03-28 03:04:00,
2013-03-27 23:09:00,43.4,39.8,30.31,NNW,333,0.0,0.0,87,0.00,,,0.00,0.0,WeatherDisplay:10.37,2013-03-28 03:09:00,
2013-03-27 23:14:00,43.4,40.1,30.31,NNW,333,0.0,0.0,88,0.00,,,0.00,0.0,WeatherDisplay:10.37,2013-03-28 03:14:00,
2013-03-27 23:19:00,43.2,39.9,30.31,NNW,333,0.0,0.0,88,0.00,,,0.00,0.0,WeatherDisplay:10.37,2013-03-28 03:19:00,
2013-03-27 23:24:00,43.1,39.8,30.31,NNW,333,0.0,0.0,88,0.00,,,0.00,0.0,WeatherDisplay:10.37,2013-03-28 03:24:00,
2013-03-27 23:29:00,43.0,40.0,30.31,NNW,333,0.0,0.0,89,0.00,,,0.00,0.0,WeatherDisplay:10.37,2013-03-28 03:29:00,
2013-03-27 23:34:00,42.9,39.9,30.31,NNW,333,0.0,0.0,89,0.00,,,0.00,0.0,WeatherDisplay:10.37,2013-03-28 03:34:00,
2013-03-27 23:39:00,43.0,40.3,30.30,NNW,333,0.0,0.0,90,0.00,,,0.00,0.0,WeatherDisplay:10.37,2013-03-28 03:39:00,
2013-03-27 23:44:00,43.0,40.3,30.30,NNW,333,0.0,0.0,90,0.00,,,0.00,0.0,WeatherDisplay:10.37,2013-03-28 03:44:00,
2013-03-27 23:49:00,42.8,40.1,30.30,NNW,333,0.0,0.0,90,0.00,,,0.00,0.0,WeatherDisplay:10.37,2013-03-28 03:49:00,
2013-03-27 23:54:00,42.7,40.0,30.29,NNW,333,0.0,0.0,90,0.00,,,0.00,0.0,WeatherDisplay:10.37,2013-03-28 03:54:00,
2013-03-27 23:59:00,42.6,39.9,30.29,NNW,333,0.0,0.0,90,0.00,,,0.00,0.0,WeatherDisplay:10.37,2013-03-28 03:59:00,